Overview Statistics Trail Chart Weather Telemetry Raw packets
 

This is the latest recevied weather packets stored in our database for station/object YO3FNC-10. If no packets are shown the sender has not sent any weather packets the latest 10 day(s).

<< 14 15 16 17 18 19 20 >>
Time Temp. Humidity Pressure Rain* Wind** Luminosity Snow
1788219034 30.56° C 29% 1017.1 hPa - - - -
1788218134 30.56° C 30% 1017 hPa - - - -
1788217234 29.44° C 29% 1017 hPa - - - -
1788216334 28.89° C 29% 1016.9 hPa - - - -
1788215437 28.89° C 28% 1017.1 hPa - - - -
1788214533 29.44° C 28% 1017.1 hPa - - - -
1788213633 29.44° C 28% 1017.2 hPa - - - -
1788212732 30° C 27% 1017.3 hPa - - - -
1788211832 30.56° C 26% 1017.2 hPa - - - -
1788210932 30.56° C 27% 1017.2 hPa - - - -
1788210032 30° C 26% 1017.1 hPa - - - -
1788209132 29.44° C 26% 1017.2 hPa - - - -
1788208232 29.44° C 26% 1017.1 hPa - - - -
1788207331 29.44° C 25% 1017.1 hPa - - - -
1788206431 29.44° C 25% 1017 hPa - - - -
1788205531 30° C 25% 1016.9 hPa - - - -
1788204631 30° C 25% 1016.9 hPa - - - -
1788203731 30° C 25% 1016.7 hPa - - - -
1788202831 30° C 26% 1016.6 hPa - - - -
1788201931 30° C 26% 1016.6 hPa - - - -
1788201031 30° C 26% 1016.7 hPa - - - -
1788200130 30.56° C 26% 1016.7 hPa - - - -
1788199230 30.56° C 27% 1016.7 hPa - - - -
1788198330 31.11° C 27% 1016.5 hPa - - - -
1788197430 31.11° C 26% 1016.3 hPa - - - -

* Rain since midnight (hover to see other rain measurements)
** Current wind speed in m/s (hover to see current wind gust speed)